Weather History for Vicksburg, MS

Change the Weather History Date:

Saturday, March 16, 2013

  Actual Average Record
Temperature  
Mean Temperature 67 °F 57 °F  
Max Temperature 78 °F 69 °F 85 °F (1977)
Min Temperature 56 °F 46 °F 22 °F (1954)
Degree Days  
Heating Degree Days 0 8  
Month to date heating degree days 228 163  
Since 1 July heating degree days 1998 2139  
Cooling Degree Days 2 1  
Month to date cooling degree days 2 13  
Year to date cooling degree days 20 22  
Growing Degree Days 16 (Base 50)    
Moisture  
Dew Point 52 °F    
Average Humidity 61    
Maximum Humidity 86    
Minimum Humidity 36    
Precipitation  
Precipitation 0.00 in 0.14 in 3.07 in (1973)
Month to date precipitation 1.58 2.80  
Year to date precipitation 24.41 13.14  
Sea Level Pressure  
Sea Level Pressure 30.01 in    
Wind  
Wind Speed 10 mph (SSW)    
Max Wind Speed 20 mph    
Max Gust Speed 26 mph    
Visibility 10 miles    
Events      
T = Trace of Precipitation, MM = Missing Value Source: NWS Daily Summary

Daily Weather History Graph

Daily Weather History Graph

Search for Another Location

Airport:

Trip Planner

Search our weather history database for the weather conditions in past years. The results will help you decide how hot, cold, wet, or windy it might be!

Date:

Astronomy

Mar. 16, 2013 Rise Set
Actual Time 7:12 AM CDT 7:13 PM CDT
Civil Twilight 6:48 AM CDT 7:37 PM CDT
Nautical Twilight 6:19 AM CDT 8:06 PM CDT
Astronomical Twilight 5:51 AM CDT 8:34 PM CDT
Moon 9:59 AM CDT (3/16) No Moon Set
Length of Visible Light 12h 49m
Length of Day
12h 00m
Waxing Crescent, 23% of the Moon is Illuminated
Mar 16
Waxing Crescent
Mar 19
First Quarter
Mar 27
Full
Apr 2
Last Quarter
Apr 10
New

Hourly Weather History & Observations

Time (CDT) Temp. Dew Point Humidity Pressure Visibility Wind Dir Wind Speed Gust Speed Precip Events Conditions
12:53 AM 62.1 °F 52.0 °F 70% 30.06 in 10.0 mi SSW 12.7 mph 23.0 mph N/A   Clear
1:53 AM 60.1 °F 53.1 °F 78% 30.05 in 10.0 mi SSW 13.8 mph 20.7 mph N/A   Clear
2:53 AM 59.0 °F 53.1 °F 81% 30.05 in 10.0 mi SSW 8.1 mph - N/A   Clear
3:53 AM 57.9 °F 53.1 °F 84% 30.04 in 10.0 mi SSW 10.4 mph - N/A   Clear
4:53 AM 57.0 °F 53.1 °F 87% 30.03 in 10.0 mi SSW 6.9 mph - N/A   Clear
5:53 AM 57.0 °F 52.0 °F 83% 30.04 in 10.0 mi SW 6.9 mph - N/A   Clear
6:53 AM 55.9 °F 52.0 °F 87% 30.05 in 10.0 mi SSW 5.8 mph - N/A   Clear
7:53 AM 57.0 °F 52.0 °F 83% 30.05 in 10.0 mi SSW 5.8 mph - N/A   Clear
8:53 AM 61.0 °F 53.1 °F 75% 30.07 in 10.0 mi SW 11.5 mph 17.3 mph N/A   Scattered Clouds
9:03 AM 60.8 °F 53.6 °F 77% 30.05 in 10.0 mi SW 9.2 mph 19.6 mph N/A   Mostly Cloudy
9:40 AM 64.4 °F 55.4 °F 73% 30.05 in 10.0 mi SW 10.4 mph 18.4 mph N/A   Scattered Clouds
9:53 AM 64.9 °F 55.0 °F 70% 30.07 in 10.0 mi SW 12.7 mph 20.7 mph N/A   Clear
10:49 AM 69.8 °F 55.4 °F 60% 30.05 in 10.0 mi SW 12.7 mph 19.6 mph N/A   Mostly Cloudy
10:53 AM 70.0 °F 55.9 °F 61% 30.07 in 10.0 mi SW 12.7 mph 19.6 mph N/A   Mostly Cloudy
11:21 AM 69.8 °F 55.4 °F 60% 30.04 in 10.0 mi WSW 11.5 mph 19.6 mph N/A   Mostly Cloudy
11:53 AM 72.0 °F 54.0 °F 53% 30.06 in 10.0 mi SW 13.8 mph 23.0 mph N/A   Partly Cloudy
12:53 PM 75.0 °F 53.1 °F 46% 30.04 in 10.0 mi SSW 11.5 mph 19.6 mph N/A   Clear
1:53 PM 77.0 °F 51.1 °F 40% 30.00 in 10.0 mi SW 13.8 mph 19.6 mph N/A   Clear
2:53 PM 78.1 °F 52.0 °F 40% 29.96 in 10.0 mi SSW 9.2 mph 21.9 mph N/A   Clear
3:53 PM 77.0 °F 51.1 °F 40% 29.94 in 10.0 mi South 13.8 mph 21.9 mph N/A   Clear
4:53 PM 78.1 °F 50.0 °F 37% 29.92 in 10.0 mi SSW 10.4 mph 19.6 mph N/A   Clear
5:53 PM 77.0 °F 48.9 °F 37% 29.91 in 10.0 mi SSW 8.1 mph 17.3 mph N/A   Clear
6:53 PM 73.9 °F 48.9 °F 41% 29.91 in 10.0 mi SSW 10.4 mph 18.4 mph N/A   Clear
7:53 PM 71.1 °F 48.9 °F 45% 29.91 in 10.0 mi SSW 8.1 mph - N/A   Clear
8:53 PM 68.0 °F 48.0 °F 49% 29.91 in 10.0 mi South 8.1 mph - N/A   Clear
9:53 PM 64.0 °F 48.9 °F 58% 29.93 in 10.0 mi South 8.1 mph - N/A   Clear
10:53 PM 66.0 °F 50.0 °F 56% 29.94 in 10.0 mi SSW 6.9 mph - N/A   Clear
11:53 PM 66.0 °F 52.0 °F 60% 29.96 in 10.0 mi SSW 9.2 mph 18.4 mph N/A   Clear